Temp
23 23 22 21 21 22 22 21 21 21 21 21 21 21 21 21 20 20 20 20 20 20 20 20 20 20 19 19 18 18 18 19
23 23 22 22 21 21 21 21 21 21 21 21 21 20 20 20 20 20 20 20 19 19 19 20 20 19 20 20 18 18 19 19
24 23 23 22 22 21 21 20 20 21 21 21 21 20 20 20 20 20 20 20 19 19 19 19 19 19 19 20 19 19 18 19
24 23 22 22 22 21 21 20 20 20 20 21 21 20 20 20 20 20 20 19 19 19 19 19 19 19 19 19 19 18 18 17
23 23 23 22 22 21 22 22 21 20 19 20 21 21 20 20 20 20 20 19 19 19 19 19 19 19 19 19 18 18 18 18
19 18 19 19 20 20 20 21 21 20 20 19 20 20 21 20 20 20 20 20 20 19 19 19 19 18 19 19 18 18 19 19
16 17 18 18 18 19 19 19 21 21 20 20 20 20 20 20 20 21 21 21 20 20 19 19 19 19 19 19 18 19 19 18
14 14 16 18 17 16 16 18 19 20 21 21 20 20 20 21 21 21 21 21 21 20 20 19 19 19 19 19 19 19 19 19
11 12 13 14 14 15 15 15 17 18 20 22 21 20 20 20 21 21 21 21 21 20 20 20 19 19 19 19 19 19 19 18
11 10 10 10 10 10 12 13 14 16 18 19 21 21 20 20 20 21 21 22 21 21 20 20 20 19 19 19 19 19 19 19
9 9 8 8 8 8 9 10 12 13 16 18 20 20 20 20 20 21 22 22 22 21 21 20 20 19 19 19 19 19 18 18
8 8 7 7 6 6 6 7 9 12 13 16 19 19 20 20 20 20 21 22 22 21 21 20 20 20 19 19 19 18 18 18
7 7 6 5 5 5 5 5 6 8 10 12 15 19 19 19 19 19 21 21 22 21 20 20 19 19 18 16 17 18 18 17
6 6 5 4 4 3 4 4 5 6 8 10 12 15 19 18 18 19 20 20 21 20 20 18 18 19 17 16 15 16 16 17
5 5 4 3 3 3 4 4 5 6 7 10 13 15 17 19 18 19 19 20 20 20 20 19 18 17 18 17 14 14 14 16
4 4 3 2 2 2 3 3 4 5 6 7 9 12 15 18 18 19 20 19 19 19 19 19 19 17 16 19 20 18 14 14
3 3 3 2 1 2 2 3 4 4 5 7 9 11 13 17 18 18 18 19 19 19 18 18 18 18 17 18 19 19 19 14
2 3 2 1 1 2 2 3 3 4 5 7 8 10 13 16 18 17 17 15 19 19 18 18 18 18 17 17 19 19 17 16
2 2 1 1 1 2 2 2 4 4 5 7 9 10 13 16 18 16 16 15 17 18 17 17 18 18 17 17 18 19 20 20
2 1 1 0 1 1 1 2 3 4 6 7 9 12 14 17 18 17 16 17 13 17 17 17 17 18 17 17 18 18 19 20
Height
783 782 782 783 783 784 785 786 787 787 788 788 791 792 794 794 796 797 800 800 801 802 804 805 806 809 810 812 815 816 819 820
783 783 783 783 784 785 785 785 785 786 787 788 789 791 793 794 794 795 797 799 801 801 803 804 805 807 811 812 814 815 816 817
787 784 784 784 785 786 787 787 786 785 786 786 787 789 791 792 793 794 795 797 799 800 802 804 804 806 810 810 812 814 816 817
788 787 787 786 784 784 786 788 788 787 786 785 785 786 788 789 790 791 792 795 796 798 800 802 803 805 806 808 811 814 815 819
790 790 789 789 789 786 785 784 785 786 786 784 783 783 785 787 788 788 789 792 794 795 797 799 802 804 804 806 810 813 816 819
791 790 789 788 787 788 788 783 782 782 783 784 784 782 781 784 784 785 785 788 790 792 793 796 799 801 802 804 807 810 813 813
797 793 789 789 788 786 786 784 783 779 779 780 781 781 780 780 781 781 781 783 785 787 790 792 795 798 799 802 805 807 809 811
799 795 793 790 787 786 784 782 780 778 776 774 775 777 778 777 778 778 778 778 779 782 785 788 790 793 797 798 801 804 806 808
800 797 794 791 789 785 781 779 777 775 774 770 768 771 773 774 773 775 774 774 775 777 781 785 788 790 793 796 798 800 804 805
801 798 794 791 788 786 780 774 772 769 769 768 764 762 766 769 769 768 770 771 771 771 774 780 784 786 788 793 795 798 800 803
803 800 797 793 787 783 779 773 767 765 762 761 760 757 757 761 763 762 762 764 764 764 765 769 776 782 786 788 792 795 797 801
802 796 789 785 782 778 773 769 763 758 755 752 752 751 750 750 754 755 755 757 760 760 761 763 764 772 781 786 788 791 794 797
799 796 791 786 779 773 767 762 757 751 746 744 743 742 742 739 740 743 746 745 750 753 755 759 764 765 773 783 786 789 790 793
798 796 793 789 782 774 770 761 753 745 738 733 734 734 731 731 730 731 736 739 740 746 747 753 758 761 764 771 783 787 787 788
799 794 792 788 781 772 764 758 747 739 733 728 724 722 720 719 722 725 730 734 732 735 738 741 749 754 753 758 774 778 779 782
797 795 792 786 779 770 764 755 744 737 729 721 714 712 710 709 710 716 722 725 725 724 733 732 741 746 751 750 750 755 769 777
799 793 787 780 773 766 759 749 740 729 722 714 706 703 701 702 701 704 711 710 717 719 723 731 730 736 738 744 746 748 753 759
794 788 781 775 768 761 753 743 732 722 712 705 696 695 695 691 693 693 691 699 711 709 709 720 723 728 731 735 741 740 745 749
794 786 778 770 763 754 745 735 725 715 704 694 687 684 683 683 682 684 686 687 684 700 700 711 717 721 723 723 733 737 740 744
792 784 777 767 757 746 737 728 719 708 696 684 673 667 671 673 672 675 676 681 692 693 695 705 706 715 716 715 721 730 736 739
Wind_Speed
4 6 4 9 9 9 9 9 8 8 8 9 10 12 11 11 10 9 9 9 10 10 9 9 10 11 13 14 20 16 10 11
5 4 6 2 7 9 10 11 11 11 10 11 12 12 13 12 12 11 11 11 11 10 10 10 11 10 11 13 17 15 10 11
7 5 7 3 1 6 10 12 12 13 13 13 13 14 14 14 14 13 13 13 13 12 11 11 11 11 12 13 13 13 6 14
24 26 9 8 5 5 8 10 14 15 16 16 16 16 15 14 15 16 14 14 14 13 12 11 13 13 14 15 13 14 13 11
29 28 24 22 14 12 11 13 14 17 19 19 19 18 17 17 15 15 17 16 16 16 16 16 15 14 15 16 15 15 18 11
35 35 33 32 28 27 17 16 15 17 19 21 21 20 21 21 23 22 20 18 18 18 18 17 16 16 15 18 19 16 16 22
35 34 35 36 35 34 29 27 23 21 22 22 25 23 24 24 23 22 22 20 21 21 19 19 19 19 18 17 21 16 14 24
35 36 36 36 37 34 33 33 30 25 27 24 28 30 28 28 26 25 26 22 21 23 23 20 20 19 18 22 20 19 18 24
38 35 38 38 38 38 39 37 33 31 29 31 28 33 34 32 32 32 28 26 22 26 27 25 23 23 21 20 20 19 21 28
38 37 39 38 34 34 38 40 38 37 32 30 38 35 36 34 34 35 32 29 28 31 32 29 27 24 23 20 19 20 18 22
31 32 30 30 31 29 30 37 39 34 34 34 32 44 42 41 39 39 37 34 34 35 34 35 30 25 22 20 19 19 21 22
31 35 43 44 33 30 31 30 34 37 33 33 40 37 46 46 45 41 42 38 33 33 36 37 34 28 24 20 20 18 19 21
32 34 36 41 37 35 35 36 35 39 43 40 31 37 40 46 47 43 44 45 42 39 37 37 31 32 23 18 17 16 18 18
33 33 34 35 33 35 34 35 38 38 42 46 44 36 42 47 47 46 43 41 43 42 39 26 25 36 17 17 3 4 12 18
33 32 34 35 33 35 36 36 36 34 33 34 36 41 44 46 49 47 39 41 43 46 43 37 27 33 32 13 4 4 5 16
33 32 33 31 32 33 32 33 34 33 37 40 42 46 42 43 47 50 48 43 41 46 44 42 35 30 30 32 16 17 4 3
30 29 33 35 33 30 32 33 33 37 37 40 41 40 45 43 40 45 54 45 45 43 41 39 41 35 34 31 25 19 16 4
33 31 38 36 34 31 31 34 37 37 37 38 40 37 36 40 41 41 51 45 45 45 46 44 42 38 35 31 29 16 12 6
31 32 38 39 35 33 34 37 35 38 37 36 37 38 32 35 39 37 43 47 35 40 41 44 42 39 39 36 34 31 22 22
30 33 36 39 37 40 37 34 32 34 35 37 44 38 31 31 33 37 35 50 64 42 39 43 43 41 37 37 34 34 30 28
Wind_Direction
22 360 352 202 198 203 209 213 214 210 206 201 202 201 207 206 207 206 223 211 214 208 210 206 205 206 196 190 182 183 203 168
322 348 9 244 230 224 223 223 220 217 212 207 206 209 211 209 210 216 220 215 220 211 213 205 202 197 196 178 183 184 217 210
7 323 338 339 294 267 252 242 233 225 220 213 210 211 212 213 218 220 218 217 219 223 218 216 204 195 193 177 174 179 202 191
26 30 336 302 274 262 270 268 258 243 230 222 215 214 217 221 228 224 216 218 218 221 223 219 210 204 196 195 180 170 176 173
20 21 12 23 333 284 257 272 277 258 244 232 222 216 213 222 220 215 215 219 219 218 219 217 214 204 204 194 182 180 162 179
22 18 14 7 5 8 298 265 266 257 251 239 232 220 209 217 220 223 216 228 224 221 221 222 215 202 208 195 182 172 168 161
11 5 358 354 351 344 341 338 284 253 242 242 235 232 216 216 217 224 219 226 225 219 222 225 213 203 210 188 182 176 158 170
359 358 350 341 338 338 333 325 326 303 243 236 237 233 227 220 218 221 228 220 214 214 215 215 206 203 204 193 190 173 175 163
2 356 347 341 334 323 319 317 308 310 291 246 238 233 232 227 223 224 231 218 223 215 215 212 204 201 200 196 185 178 177 177
355 351 347 345 337 329 319 309 306 299 291 281 246 233 231 229 229 223 225 222 222 216 211 201 203 201 200 197 176 183 180 177
354 347 345 340 331 326 319 309 302 298 294 277 269 243 230 228 229 227 218 220 219 216 207 197 197 198 204 203 198 191 180 180
350 345 340 339 333 327 319 310 303 296 292 289 272 259 236 226 226 233 222 215 219 214 202 199 192 191 198 204 198 190 179 192
349 342 339 337 330 328 323 313 305 296 287 278 278 264 248 226 223 226 222 209 213 206 193 191 189 188 175 153 159 168 181 190
344 339 334 331 323 318 311 304 299 293 289 284 277 270 251 240 224 219 219 207 205 204 191 181 183 188 169 144 153 178 189 196
340 334 329 326 320 317 310 301 296 296 290 287 278 278 253 240 236 223 218 208 203 203 195 187 185 182 181 164 145 204 144 196
336 328 323 323 320 313 304 297 295 293 289 286 280 277 270 243 232 232 221 211 205 198 197 192 187 189 184 197 178 156 166 167
331 325 328 327 321 312 304 299 294 293 288 285 279 274 271 261 241 230 234 214 207 200 193 196 191 192 192 194 190 175 170 146
337 332 331 328 321 315 308 303 300 295 288 284 275 274 266 268 245 231 225 250 212 200 192 194 193 196 195 193 202 189 193 159
334 333 330 326 322 324 321 309 301 297 287 280 275 268 254 261 241 219 221 221 205 200 193 194 195 196 194 190 199 209 210 194
334 333 326 325 329 331 323 316 309 300 292 286 278 253 239 256 240 234 206 203 230 221 198 198 194 198 198 192 192 205 214 200